Location: Street
(51.1247°N, 2.7429°W)
Time: 06:17:40
(UTC+00:00)

SR - Pass Details

Date: 01 December 2020
Orbit: 575 x 880 km, 66.7° (Epoch: 25 January)

Event Time Altitude Azimuth Distance (km) Brightness Sun altitude
Rises 17:53:16 0° 200° (SSW) 2,811 ? -15.9°
Reaches altitude 10° 17:55:29 10° 195° (SSW) 1,939 ? -16.2°
Maximum altitude 17:59:40 50° 120° (ESE) 805 ? -16.8°
Enters shadow 18:01:25 32° 64° (ENE) 1,107 ? -17.1°
Drops below altitude 10° 18:04:13 10° 45° (NE) 2,097 - -17.5°
Sets 18:06:41 0° 41° (NE) 3,066 - -17.9°
